Location: Lafig�re
(44.4503°N, 4.0357°E)
Time: 15:32:58
(UTC+00:00)

Transit 2A Rocket - Pass Details

Date: 28 January 2021
Orbit: 594 x 908 km, 66.7° (Epoch: 06 March)

Event Time Altitude Azimuth Distance (km) Brightness Sun altitude
Rises 11:28:58 0° 225° (SW) 3,326 8.8 27.2°
Reaches altitude 10° 11:31:33 10° 230° (SW) 2,348 8.1 27.2°
Maximum altitude 11:36:46 51° 306° (NW) 924 5.5 27.3°
Drops below altitude 10° 11:41:34 10° 23° (NNE) 2,156 6.9 27.4°
Sets 11:43:52 0° 29° (NNE) 3,028 7.6 27.4°
